"Pseudo-MPEC" for P11Jurz

Created 2023 Sep 27 2:22:12 UT using Find_Orb

Click here for an explanation of pseudo-MPECs

 
 Astrometry: 
     P11Jurz* C2023 09 14A:Gbw8PS67GAstrometryC#RXkL1Credacted;B@6W?d.OD^ff%ZF51
     P11Jurz  C2023 09 14gAWYqdo.e8eqK1C6T?VEQuc_J-CjMJnC[MoyvWclickd5C5`.XPRF51
     P11Jurz  C2023 09 14-;)\here$BaeeQlgV`07gY7d7Uy4k9Bfor#i8/PT8g2Z(xyYDfi+F51
     P11Jurz  C2023 09 14Q'r0r6!Mi5r(WPLp_V$Rw6explanationf%hf93,(r7/D'[#/J9'F51

Station data:
(F51) Pan-STARRS 1, Haleakala  (N20.707234 W156.255910)  US/Hawaii.
   Observers J. Bulger, T. Lowe, A. Schultz, M. Willman. Measurers K.
   Chambers, S. Chastel, T. de Boer, L. Denneau, J. Fairlamb, H. Flewelling,
   M. Huber, C.-C. Lin, E. Magnier, Y. Ramanjooloo, R. Wainscoat, R. Weryk.
   1.8-m Ritchey-Chrétien + CCD.

Orbital elements:  P11Jurz
   Perihelion 2023 Nov 2.37738 +/- 55.1 TT =  9:03:25 (JD 2460250.87738)
Epoch 2023 Sep 14.0 TT = JDT 2460201.5   Earth MOID: 0.6657   Ju: 0.0969
M 354.02459497 +/- 14               (J2000 ecliptic)             AutoNEOCP
n   0.12101502 +/- 0.176            Peri.  354.38972 +/- 70
a   4.04802489 +/- 3.92             Node    23.86505 +/- 44
e   0.5889232 +/- 0.238             Incl.    3.90077 +/- 2.4
P   8.14                   H 21.31  G  0.15   U 11.6  SR
q 1.66404882 +/- 0.653    Q 6.43200095 +/- 116
From 4 observations 2023 Sept. 14 (50.6 min); mean residual 0".06
Residuals in arcseconds: 
230914 F51  .03-  .00     230914 F51  .12-  .02+    
230914 F51  .10+  .01-    230914 F51  .04+  .01-    

Ephemerides (geocentric):
Date (UTC) HH   RA             Dec           delta  r     elong  mag " sig PA
---- --------  ------------   ------------  ------ ------ -----  --- --------
2023 09 27 02  23 28 02.040   -07 55 37.07  .71547 1.7047 165.6 22.3  37d  83
2023 09 27 03  23 28 01.202   -07 55 28.55  .71546 1.7046 165.5 22.3  38d  83
2023 09 27 04  23 28 00.366   -07 55 20.00  .71546 1.7045 165.5 22.3  38d  83
2023 09 27 05  23 27 59.531   -07 55 11.44  .71545 1.7044 165.4 22.3  38d  83
2023 09 27 06  23 27 58.698   -07 55 02.86  .71545 1.7044 165.4 22.3  38d  83
2023 09 27 07  23 27 57.866   -07 54 54.26  .71544 1.7043 165.3 22.3  38d  84
2023 09 27 08  23 27 57.036   -07 54 45.64  .71544 1.7042 165.3 22.3  38d  84
2023 09 27 09  23 27 56.207   -07 54 37.00  .71543 1.7041 165.3 22.3  38d  84
2023 09 27 10  23 27 55.380   -07 54 28.34  .71543 1.7040 165.2 22.3  38d  84
2023 09 27 11  23 27 54.555   -07 54 19.66  .71543 1.7039 165.2 22.3  38d  84
2023 09 27 12  23 27 53.731   -07 54 10.97  .71542 1.7038 165.1 22.3  38d  84
2023 09 27 13  23 27 52.909   -07 54 02.25  .71542 1.7037 165.1 22.3  38d  84
2023 09 27 14  23 27 52.088   -07 53 53.52  .71542 1.7036 165.1 22.3  38d  84
2023 09 27 15  23 27 51.269   -07 53 44.76  .71542 1.7035 165.0 22.3  38d  84
2023 09 27 16  23 27 50.452   -07 53 35.99  .71541 1.7034 165.0 22.3  38d  84
2023 09 27 17  23 27 49.636   -07 53 27.20  .71541 1.7034 164.9 22.3  38d  84
2023 09 27 18  23 27 48.822   -07 53 18.39  .71541 1.7033 164.9 22.3  38d  84
2023 09 27 19  23 27 48.010   -07 53 09.55  .71541 1.7032 164.9 22.3  38d  84
2023 09 27 20  23 27 47.199   -07 53 00.71  .71541 1.7031 164.8 22.3  38d  84
2023 09 27 21  23 27 46.390   -07 52 51.84  .71541 1.7030 164.8 22.3  38d  84
2023 09 27 22  23 27 45.582   -07 52 42.95  .71541 1.7029 164.7 22.3  38d  84
2023 09 27 23  23 27 44.776   -07 52 34.04  .71541 1.7028 164.7 22.3  38d  84
2023 09 28 00  23 27 43.972   -07 52 25.11  .71541 1.7027 164.7 22.3  38d  84
2023 09 28 01  23 27 43.169   -07 52 16.17  .71541 1.7026 164.6 22.3  38d  84
2023 09 28 02  23 27 42.368   -07 52 07.20  .71542 1.7026 164.6 22.3  38d  84
2023 09 28 03  23 27 41.569   -07 51 58.22  .71542 1.7025 164.5 22.3  38d  84
2023 09 28 04  23 27 40.771   -07 51 49.21  .71542 1.7024 164.5 22.3  38d  84
2023 09 28 05  23 27 39.975   -07 51 40.19  .71542 1.7023 164.5 22.3  38d  84
2023 09 28 06  23 27 39.181   -07 51 31.15  .71542 1.7022 164.4 22.3  38d  84
2023 09 28 07  23 27 38.388   -07 51 22.09  .71543 1.7021 164.4 22.3  38d  84
2023 09 28 08  23 27 37.598   -07 51 13.01  .71543 1.7020 164.3 22.3  38d  84
2023 09 28 09  23 27 36.808   -07 51 03.91  .71543 1.7019 164.3 22.3  38d  84
2023 09 28 10  23 27 36.021   -07 50 54.79  .71544 1.7018 164.3 22.3  38d  84
2023 09 28 11  23 27 35.235   -07 50 45.65  .71544 1.7018 164.2 22.3  38d  84
2023 09 28 12  23 27 34.451   -07 50 36.49  .71545 1.7017 164.2 22.4  38d  84
2023 09 28 13  23 27 33.669   -07 50 27.31  .71545 1.7016 164.1 22.4  38d  84
2023 09 28 14  23 27 32.888   -07 50 18.11  .71546 1.7015 164.1 22.4  38d  84
2023 09 28 15  23 27 32.109   -07 50 08.90  .71546 1.7014 164.1 22.4  38d  84
2023 09 28 16  23 27 31.332   -07 49 59.66  .71547 1.7013 164.0 22.4  38d  84
2023 09 28 17  23 27 30.557   -07 49 50.40  .71548 1.7012 164.0 22.4  38d  85
2023 09 28 18  23 27 29.783   -07 49 41.13  .71548 1.7011 163.9 22.4  38d  85
2023 09 28 19  23 27 29.012   -07 49 31.83  .71549 1.7010 163.9 22.4  38d  85
2023 09 28 20  23 27 28.242   -07 49 22.52  .71550 1.7010 163.9 22.4  38d  85
2023 09 28 21  23 27 27.473   -07 49 13.19  .71550 1.7009 163.8 22.4  38d  85
2023 09 28 22  23 27 26.707   -07 49 03.83  .71551 1.7008 163.8 22.4  38d  85
2023 09 28 23  23 27 25.942   -07 48 54.46  .71552 1.7007 163.7 22.4  38d  85
2023 09 29 00  23 27 25.179   -07 48 45.07  .71553 1.7006 163.7 22.4  38d  85
2023 09 29 01  23 27 24.418   -07 48 35.65  .71554 1.7005 163.6 22.4  38d  85